Tracking 27086 objects as of 22-Mar-2023
HD Live streaming from Space Station
objects crossing your sky now

STARLINK-2605

Track STARLINK-2605 now!
10-day predictions
STARLINK-2605 is classified as:


NORAD ID: 48392
Int'l Code: 2021-038AR
Perigee: 553.9 km
Apogee: 554.9 km
Inclination: 53.1 °
Period: 95.6 minutes
Semi major axis: 6925 km
RCS: Unknown
Launch date: May 4, 2021
Source: United States (US)
Launch site: AIR FORCE EASTERN TEST RANGE (AFETR)
Your satellite tracking list
Your tracking list is empty




NASA's NSSDC Master Catalog

Two Line Element Set (TLE):
1 48392U 21038AR  23081.52398668  .00030776  00000-0  20768-2 0  9999
2 48392  53.0552 164.1333 0000765  80.8922 279.2153 15.06385330104633
Source of the keplerian elements: AFSPC